Location: Unspecified
(42.9300°N, 71.1866°W)
Time: 18:28:49
(UTC-04:00)

Resurs 1-4 Rocket - Visible Passes

Search period start: 25 June 2017 00:00
Search period end: 05 July 2017 00:00
Orbit: 801 x 813 km, 98.5° (Epoch: 25 June)

Date Brightness Start Highest point End Pass type
(mag) Time Alt. Az. Time Alt. Az. Time Alt. Az.
25 Jun 4.4 01:47:52 10° NE 01:50:51 15° E 01:53:50 10° SE visible
25 Jun 2.1 03:25:54 10° N 03:31:13 71° WNW 03:35:11 18° SSW visible
26 Jun 2.3 03:01:20 10° NNE 03:06:40 71° ESE 03:10:18 21° S visible
27 Jun 3.0 02:36:58 10° NNE 02:42:02 42° E 02:45:25 19° SSE visible
27 Jun 3.4 04:17:15 10° N 04:21:38 27° WNW 04:25:59 10° WSW visible
28 Jun 3.7 02:12:54 10° NE 02:17:18 26° E 02:20:32 15° SE visible
28 Jun 2.7 03:52:17 10° N 03:57:16 42° WNW 04:01:36 13° SW visible
29 Jun 4.3 01:49:21 10° NE 01:52:29 16° E 01:55:35 10° SE visible
29 Jun 2.2 03:27:31 10° N 03:32:49 69° WNW 03:36:42 18° SSW visible
30 Jun 2.2 03:02:56 10° NNE 03:08:16 74° ESE 03:11:49 22° S visible
01 Jul 2.9 02:38:33 10° NNE 02:43:38 44° E 02:46:56 20° SSE visible
01 Jul 3.4 04:18:54 10° N 04:23:12 26° WNW 04:27:30 10° WSW visible
02 Jul 3.7 02:14:26 10° NE 02:18:55 27° E 02:22:02 16° SE visible
02 Jul 2.8 03:53:54 10° N 03:58:51 40° WNW 04:03:06 13° SW visible
03 Jul 4.3 01:50:50 10° NE 01:54:05 16° E 01:57:08 11° SE visible
03 Jul 2.2 03:29:07 10° N 03:34:24 66° WNW 03:38:13 19° SSW visible
04 Jul 2.2 03:04:31 10° NNE 03:09:52 77° ESE 03:13:19 22° S visible
